Regional Weather Roundup
Issued by NWS

Home | Current Version | Previous Version | Text Only | Print | Product List | Glossary Off
Versions: 1 2 3 4 5 6 7 8 9 10 11 12 13 14 15 16 17 18 19 20 21 22 23 24 25 26 27 28 29 30 31 32 33 34 35 36 37 38 39 40 41 42 43 44 45 46 47 48 49 50

000
ASUS43 KLOT 300121
RWRIL

ILLINOIS REGIONAL WEATHER ROUNDUP
NATIONAL WEATHER SERVICE CHICAGO/ROMEOVILLE IL
800 PM CDT SAT AUG 29 2015

NOTE: "FAIR" INDICATES FEW OR NO CLOUDS BELOW 12,000 FEET WITH NO
SIGNIFICANT WEATHER AND/OR OBSTRUCTIONS TO VISIBILITY.

* THESE STATIONS ARE NOT UNDER NWS QUALITY CONTROL. THEY ALSO MAY NOT
  REPORT WEATHER SUCH AS PRECIPITATION OR FOG.

ILZ001-002-007-009-015-016-024-300200-
NORTHWEST ILLINOIS

CITY           SKY/WX    TMP DP  RH WIND       PRES   REMARKS
MOLINE         MOCLDY    72  67  84 CALM      30.01R
STERLING*      CLOUDY    70  66  88 CALM      30.00S
SAVANNA*       CLOUDY    71  65  81 NE5       30.02R
$$

ILZ003-004-008-010-011-017-018-300200-
NORTH CENTRAL ILLINOIS

CITY           SKY/WX    TMP DP  RH WIND       PRES   REMARKS
ROCKFORD       DRIZZLE   69  64  84 N7        30.04R
FREEPORT*      CLOUDY    66  64  92 N3        30.05R
ROCHELLE*      CLOUDY    68  65  91 CALM      30.03R
DE KALB*       CLOUDY    68  65  92 CALM      30.03S
PERU*          CLOUDY    71  67  87 NE5       30.02R
$$

ILZ005-006-012>014-019>023-300200-
NORTHEAST ILLINOIS

CITY           SKY/WX    TMP DP  RH WIND       PRES   REMARKS
CHICAGO-OHARE  LGT RAIN  67  66  97 N12       30.01S FOG
CHICAGO-MIDWAY CLOUDY    71  67  87 N7        30.00S FOG
AURORA         CLOUDY    69  68  96 N3        30.03R FOG
LANSING*       CLOUDY    70  66  86 NE5       30.01R
JOLIET*        CLOUDY    71  69  93 N7        30.01R
WAUKEGAN       CLOUDY    65  63  93 CALM      30.02R FOG
DUPAGE AIRPORT CLOUDY    69  66  90 N6        30.02R FOG
KANKAKEE*      CLOUDY    72  71  98 CALM      30.01R FOG
WHEELING       CLOUDY    67  65  93 NE5       30.03S FOG
MORRIS*        LGT RAIN  69  68  94 CALM      30.00R
ROMEOVILLE*    CLOUDY    69  67  94 N5        30.01S FOG
NORTHERLY ISL    N/A     66  63  90 N5          N/A
$$

LMZ740>746-300200-
SOUTHERN LAKE MICHIGAN

STATION/POSITION SKY/WX   TEMP    WIND        PRES    VSBY  WAVE
                          AIR SEA DIR/SP/G                  HT/PER
                          (F)     (DEG/KT/KT) (MB)    (MI)  (FT/S)
SOUTHERN BUOY              68 68  140/  4/  6 1016.1R         1/ 3
WILMETTE HARBOR            57 56  130/  6/  6   N/A           1/ 3
HARRISON CRIB              62     350/  7/  9   N/A
BURNHAM HARBOR             65     360/  6       N/A
BURNS HARBOR               72     180/  4/  8 1016.3S
MICHIGAN CITY              70      70/  2/  3   N/A
MICHIGAN CITY 6N           71 70  140/  4/  4   N/A           0
ST. JOSEPH                 70 70  240/  2/  4   N/A           0
$$

ILZ025>027-034>036-040-047-049-050-058-095>099-300200-
WEST-CENTRAL ILLINOIS

CITY           SKY/WX    TMP DP  RH WIND       PRES   REMARKS
QUINCY         CLOUDY    76  70  82 CALM      30.00R
GALESBURG*     CLOUDY    71  67  89 N8        30.01R
MACOMB*        CLOUDY    74  71  89 N3        30.02R
JACKSONVILLE*  CLOUDY    78  70  77 CALM      29.99R HX  80
PITTSFIELD*    CLOUDY    77  70  79 CALM      30.01R
$$

ILZ028>032-037-038-041>044-048-051>054-059>061-300200-
CENTRAL ILLINOIS

CITY           SKY/WX    TMP DP  RH WIND       PRES   REMARKS
PONTIAC        CLOUDY    75  71  87 CALM      30.01R
BLOOMINGTON    MOCLDY    74  70  87 SW3       30.02R
DECATUR        CLOUDY    76  66  71 S10       30.01R
PEORIA         CLOUDY    77  69  76 NE5       30.00R
LACON*         CLOUDY    72  67  84 CALM      30.00R
LINCOLN*       CLOUDY    77  67  71 S3        29.99R
SPRINGFIELD    MOCLDY    76  69  79 S3        30.00R
TAYLORVILLE    CLOUDY    73  68  83 S6        30.00S
$$

ILZ033-039-045-046-055>057-062-063-300200-
EAST-CENTRAL ILLINOIS

CITY           SKY/WX    TMP DP  RH WIND       PRES   REMARKS
CHAMPAIGN      CLOUDY    73  67  81 S6        30.02R
RANTOUL*       CLOUDY    73  70  90 S3        30.01R
MATTOON        HAZE      73  66  78 S3        30.02R VSB 3/4
PARIS*         CLOUDY    72  68  88 SW3       30.03R
$$

ILZ079-100>102-300200-
SOUTHWEST ILLINOIS

CITY           SKY/WX    TMP DP  RH WIND       PRES   REMARKS
ALTON          MOCLDY    73  68  83 CALM      30.01R
BELLEVILLE     CLOUDY    73  71  91 E2        30.00R
CAHOKIA*       MOCLDY    76  68  76 S5        30.00R
SPARTA*        CLOUDY    74  68  81 S6        30.02R
$$

ILZ064>066-069>071-074>076-080>082-084>086-088>090-092>094-300200-
SOUTH-CENTRAL ILLINOIS

CITY           SKY/WX    TMP DP  RH WIND       PRES   REMARKS
CARBONDALE     CLOUDY    73  70  90 CALM      30.01R
CAIRO*         CLOUDY    75  74  98 CALM      30.01R
EFFINGHAM*     CLOUDY    74  67  80 CALM      30.04R
MARION         CLOUDY    77  72  83 CALM      30.02S
MT. VERNON     CLOUDY    72  66  83 CALM      30.04R
SALEM*         CLOUDY    73  67  83 CALM      30.02R
METROPOLIS*    CLOUDY    76  72  85 CALM      30.02R
$$

ILZ067-068-072-073-078-083-087-091-300200-
SOUTHEAST ILLINOIS

CITY           SKY/WX    TMP DP  RH WIND       PRES   REMARKS
LAWRENCEVILLE  CLOUDY    74  71  91 CALM      30.03R
FLORA*         CLOUDY    71  68  89 E3        30.03R
FAIRFIELD*     CLOUDY    72  70  93 CALM      30.01S
HARRISBURG*    CLOUDY    75  72  91 CALM      30.02R
ROBINSON*      CLOUDY    72  68  89 CALM      30.04R
CARMI*         CLOUDY    73  70  91 CALM      30.01R
$$

ABBREVIATIONS USED IN REMARKS
   TC - TEMPERATURE IN CELSIUS
  WCI - WIND CHILL INDEX
   HX - HEAT INDEX
  VSB - VISIBILITY
$$



USA.gov is the U.S. government's official web portal to all federal, state and local government web resources and services.